Weather History for Mayport NS, FL

Change the Weather History Date:

Thursday, February 27, 2014

  Actual Average Record
Temperature  
Mean Temperature 52 °F -  
Max Temperature 59 °F 66 °F 82 °F (1997)
Min Temperature 46 °F 52 °F 37 °F (2002)
Degree Days  
Heating Degree Days 12    
Growing Degree Days 2 (Base 50)    
Moisture  
Dew Point 37 °F    
Average Humidity 63    
Maximum Humidity 93    
Minimum Humidity 28    
Precipitation  
Precipitation 0.01 in - - ()
Sea Level Pressure  
Sea Level Pressure 29.91 in    
Wind  
Wind Speed 6 mph (WNW)    
Max Wind Speed 12 mph    
Max Gust Speed 20 mph    
Visibility 10 miles    
Events      
Averages and records for this station are not official NWS values.
T = Trace of Precipitation, MM = Missing Value Source: NWS Daily Summary

Daily Weather History Graph

Daily Weather History Graph

Search for Another Location

Airport:

Trip Planner

Search our weather history database for the weather conditions in past years. The results will help you decide how hot, cold, wet, or windy it might be!

Date:

Astronomy

Feb. 27, 2014 Rise Set
Actual Time 6:54 AM EST 6:23 PM EST
Civil Twilight 6:29 AM EST 6:47 PM EST
Nautical Twilight 6:02 AM EST 7:15 PM EST
Astronomical Twilight 5:34 AM EST 7:43 PM EST
Moon 5:20 AM EST (2/27) 4:50 PM EST (2/27)
Length of Visible Light 12h 17m
Length of Day
11h 29m
Waning Crescent, 4% of the Moon is Illuminated
Feb 27
Waning Crescent
Mar 1
New
Mar 8
First Quarter
Mar 16
Full
Mar 23
Last Quarter

Hourly Weather History & Observations

Time (EST) Temp. Windchill Dew Point Humidity Pressure Visibility Wind Dir Wind Speed Gust Speed Precip Events Conditions
12:27 AM 50.0 °F - 48.0 °F 93% 29.84 in 7.0 mi NNW 8.1 mph - 0.01 in   Overcast
12:52 AM 50.0 °F - 46.0 °F 86% 29.86 in 5.0 mi Variable 6.9 mph 17.3 mph 0.01 in   Overcast
1:52 AM 48.9 °F - 45.0 °F 86% 29.87 in 5.0 mi Variable 4.6 mph - N/A   Overcast
1:54 AM 48.9 °F - 45.0 °F 86% 29.87 in 7.0 mi Variable 6.9 mph - N/A   Mostly Cloudy
2:07 AM 48.9 °F - 45.0 °F 86% 29.86 in 10.0 mi Variable 6.9 mph - N/A   Overcast
2:44 AM 48.0 °F - 45.0 °F 89% 29.87 in 10.0 mi NNW 11.5 mph 19.6 mph N/A   Overcast
2:52 AM 46.9 °F - 44.1 °F 90% 29.86 in 10.0 mi Variable 5.8 mph 19.6 mph N/A   Overcast
3:09 AM 46.9 °F - 42.1 °F 83% 29.86 in 10.0 mi NW 8.1 mph - N/A   Overcast
3:18 AM 46.9 °F - 42.1 °F 83% 29.86 in 10.0 mi Variable 5.8 mph - N/A   Overcast
3:52 AM 46.9 °F - 41.0 °F 80% 29.86 in 10.0 mi NW 5.8 mph - N/A   Overcast
4:52 AM 46.9 °F - 41.0 °F 80% 29.87 in 10.0 mi Variable 6.9 mph - N/A   Overcast
5:52 AM 46.9 °F - 39.9 °F 77% 29.88 in 10.0 mi Variable 5.8 mph - N/A   Scattered Clouds
6:10 AM 46.9 °F - 39.9 °F 77% 29.89 in 10.0 mi North 5.8 mph - N/A   Overcast
6:52 AM 46.9 °F - 39.9 °F 77% 29.90 in 10.0 mi NNW 5.8 mph - N/A   Overcast
7:52 AM 46.0 °F 41.9 °F 37.0 °F 71% 29.92 in 10.0 mi NW 8.1 mph - N/A   Overcast
8:52 AM 46.0 °F 42.5 °F 35.1 °F 66% 29.95 in 10.0 mi NW 6.9 mph - N/A   Overcast
9:52 AM 46.0 °F 42.5 °F 33.1 °F 61% 29.97 in 10.0 mi WNW 6.9 mph - N/A   Mostly Cloudy
10:52 AM 46.9 °F - 32.0 °F 56% 29.96 in 10.0 mi Variable 3.5 mph - N/A   Mostly Cloudy
11:52 AM 51.1 °F - 32.0 °F 48% 29.95 in 10.0 mi Variable 6.9 mph - N/A   Mostly Cloudy
12:52 PM 54.0 °F - 30.0 °F 40% 29.93 in 10.0 mi West 8.1 mph - N/A   Mostly Cloudy
1:52 PM 55.9 °F - 26.1 °F 32% 29.92 in 10.0 mi West 4.6 mph - N/A   Mostly Cloudy
2:52 PM 59.0 °F - 26.1 °F 28% 29.89 in 10.0 mi West 5.8 mph - N/A   Mostly Cloudy
3:52 PM 59.0 °F - 28.0 °F 31% 29.91 in 10.0 mi Variable 4.6 mph - N/A   Overcast
4:52 PM 57.0 °F - 28.0 °F 33% 29.91 in 10.0 mi WSW 5.8 mph - N/A   Overcast
5:52 PM 55.9 °F - 28.9 °F 36% 29.92 in 10.0 mi West 4.6 mph - N/A   Mostly Cloudy
6:52 PM 55.0 °F - 32.0 °F 42% 29.92 in 10.0 mi West 3.5 mph - N/A   Mostly Cloudy
7:52 PM 55.0 °F - 30.9 °F 40% 29.95 in 10.0 mi West 4.6 mph - N/A   Mostly Cloudy
8:52 PM 54.0 °F - 30.9 °F 41% 29.98 in 10.0 mi West 4.6 mph - N/A   Mostly Cloudy
9:52 PM 53.1 °F - 30.9 °F 43% 29.98 in 10.0 mi Variable 3.5 mph - N/A   Mostly Cloudy
10:52 PM 52.0 °F - 34.0 °F 50% 29.99 in 10.0 mi NW 4.6 mph - N/A   Mostly Cloudy
11:52 PM 48.9 °F - 36.0 °F 61% 29.99 in 10.0 mi Calm Calm - N/A   Mostly Cloudy